Batumi International Airport
UGSB : rendu visible

Aérodrome :











RETROUVEZ-NOUS SUR...

 
LOGIN :

S'inscrire | Disclaimer

   EN    FR    IT 

 









Légende :    VFR   VFR Marginal   IFR   IFR Intensif   IFR Très Intensif
Visi : 
Plafond : 
>= 8 km
>= 3000ft
5 à 8 km
1000 à 3000 ft
1500m à 5 km
500 à 1000 ft
800 à 1500m
200 à 500 ft
< 800m
< 200 ft
Symboles :   Orages  Brouillard  Fortes neiges  Fortes précipitations  Vent > 20 kt







- Altitude de l'aérodrome : 105 ft
- Code IATA : BUS


UGSB - Batumi International

DERNIER METAR :
  • 282130Z 13007KT CAVOK 10/08 Q1018 R13/70D NOSIG

METARs EXPIRÉS :
  • 282100Z 13007KT CAVOK 10/08 Q1018 R13/70D NOSIG
  • 282030Z 13007KT CAVOK 09/08 Q1018 R13/70D NOSIG
  • 282000Z 13008KT CAVOK 09/08 Q1019 R13/70D NOSIG
  • 281930Z 14004KT CAVOK 09/07 Q1019 R13/70D NOSIG
  • 281900Z 14007KT CAVOK 10/08 Q1019 R13/70D NOSIG

TAF TAF UGSB
Valide du 28 à 18h jusqu'au 29 à 18h UTC


281700Z 2818/2918 13010KT CAVOK TX17/2912Z TN08/2901Z
TEMPO 2905/2909 36007KT
BECMG 2909/2910 25010KT FEW030 SCT100
FIR UGGG / Asie



MET'MAP, la Météo Aéronautique d'un coup d'oeil ! - Copyright ORBIFLY Décembre 2007 - Disclaimer

ORBIFLY MET'MAP TEAM :

Programmation & Développement : Alexandra Zaïnal
Conception & Développement : Baudouin d'Aumeries
Co-Programmation & Développement : Marc-Olivier Méhu
Soutien technique & logistique : Manuel Goepfert

Contact : metmap@orbifly.com




SOURCES & CREDITS :

   NOAA       Earth
Advisory